Lapse_Rate
5.3 4.8 5.1 5.6 5.4 5.3 4.7 4.4 5.4 4.6 4.9 5.5 5.3 5.7 6.1 6.3 6.2 6.3 6.6 6.6 6.5 6.2 5.9 5.7 5.5 5.4 5.3 5.1 5.2 5.1 5.0 5.1 5.2 5.2 5.3 5.4 5.4 5.4 5.4 5.5 5.3 5.3 5.4
5.6 4.9 5.1 5.4 5.3 5.1 5.2 4.6 4.0 3.5 5.0 5.2 5.6 5.8 6.3 6.3 6.3 6.3 6.5 6.4 6.5 6.2 6.1 5.9 5.8 5.5 5.4 5.3 5.2 5.1 5.1 5.2 5.2 5.3 5.5 5.4 5.5 5.5 5.5 5.5 5.3 5.2 5.2
5.7 5.2 5.1 5.3 5.1 5.0 5.6 6.2 4.0 4.1 4.2 4.8 5.7 5.7 5.6 5.8 6.1 6.4 6.6 6.6 6.6 6.3 6.2 6.0 5.8 5.6 5.5 5.4 5.2 5.2 5.0 5.2 5.1 5.4 5.6 5.6 5.4 5.7 5.8 5.6 5.3 5.4 5.0
5.0 6.0 6.1 5.6 5.1 5.1 5.8 5.0 4.7 4.7 4.5 4.1 5.6 5.6 5.6 6.1 6.3 6.4 6.7 6.7 6.5 6.4 6.3 6.1 5.9 5.7 5.5 5.5 5.3 5.2 5.1 5.3 5.5 5.7 5.9 5.9 5.9 5.6 5.9 5.8 5.5 5.4 5.3
5.5 6.3 6.1 6.1 5.4 5.5 5.2 5.4 5.8 4.3 4.0 4.5 5.5 5.6 5.9 6.1 6.3 6.4 6.4 6.6 6.7 6.5 6.3 6.1 5.9 5.8 5.6 5.6 5.4 5.3 5.3 5.5 5.8 6.0 6.2 6.2 6.2 5.8 5.6 5.6 5.3 5.4 5.5
5.7 6.4 6.1 6.3 6.4 6.0 5.1 5.0 5.4 4.5 4.2 5.0 4.9 5.7 5.9 6.0 6.0 6.3 6.4 6.7 6.8 6.6 6.5 6.1 6.0 6.0 5.9 5.7 5.7 5.7 5.6 5.8 5.8 6.0 6.1 5.9 6.1 5.7 5.7 5.5 5.6 5.4 5.3
6.5 6.3 6.0 6.2 6.7 6.0 6.0 5.2 5.1 5.5 4.5 5.4 5.4 5.6 5.6 5.8 5.9 6.0 6.2 6.4 6.4 6.4 6.5 6.4 6.2 6.2 6.0 5.9 6.0 5.9 5.6 5.9 6.0 6.1 6.3 5.8 5.9 6.1 5.6 5.2 5.5 5.6 5.4
5.8 5.8 6.6 6.4 6.6 6.4 5.7 5.5 5.6 4.9 4.1 4.8 4.6 5.5 5.2 5.3 5.7 5.5 5.9 6.1 6.3 6.5 6.6 6.5 6.3 6.1 6.0 5.9 5.9 5.6 5.6 5.9 6.1 6.1 6.1 5.8 5.6 5.5 5.2 5.3 5.4 5.3 5.2
5.8 6.4 6.2 6.2 6.5 6.5 6.4 6.1 5.8 6.0 5.8 5.8 4.5 4.5 5.2 5.5 5.6 5.8 5.6 5.7 5.8 5.9 6.2 6.3 6.2 6.1 6.1 5.9 5.8 5.7 5.9 5.9 6.1 6.3 5.7 5.8 5.5 5.5 5.2 5.5 5.5 5.2 5.1
5.4 5.9 6.1 6.2 6.7 7.0 7.0 6.9 6.4 6.8 5.7 5.6 5.9 5.0 4.5 5.0 5.4 5.5 5.6 5.6 5.6 5.7 5.8 5.8 5.9 6.2 6.0 6.1 6.4 6.2 6.2 6.1 6.0 5.5 5.5 5.9 5.5 5.0 5.4 5.4 5.3 5.3 5.1
5.6 5.9 5.8 6.0 6.6 7.2 7.6 7.1 6.9 6.5 6.1 5.8 5.8 5.6 6.0 5.1 4.7 4.7 5.5 5.6 5.6 5.5 5.4 5.5 5.8 5.8 5.8 6.2 6.3 6.1 5.8 5.6 5.2 5.1 5.7 5.7 5.6 5.4 5.5 5.5 5.4 5.4 5.1
5.8 6.0 5.9 6.2 6.7 6.6 7.2 6.9 7.1 6.6 6.5 6.3 6.3 5.8 5.2 5.4 5.1 5.2 5.3 5.5 5.7 5.2 4.9 5.0 5.4 5.5 5.4 5.6 5.7 5.7 5.4 5.0 5.2 5.7 5.7 5.4 5.6 5.7 5.4 5.2 5.1 5.1 4.9
5.3 5.4 5.2 5.7 6.5 7.0 6.6 6.6 6.6 6.7 6.4 6.1 6.0 5.9 5.5 5.5 5.7 5.7 5.3 5.4 5.2 5.2 5.0 4.6 5.1 5.3 5.4 5.2 5.3 5.2 5.5 5.6 5.2 5.3 5.2 5.2 5.8 5.5 5.2 5.1 5.0 4.9 4.9
5.4 5.2 5.3 5.2 5.4 5.7 6.0 6.0 5.9 5.9 5.9 6.2 5.9 5.8 5.6 5.2 5.2 5.6 5.3 5.2 5.5 5.1 5.2 5.2 5.3 5.3 5.5 5.5 5.8 5.2 5.2 5.6 5.7 5.7 5.9 5.8 5.7 5.3 4.9 4.8 4.9 5.1 5.2
5.1 5.3 5.3 5.2 5.3 5.4 5.5 5.7 5.9 5.9 6.1 6.2 6.0 5.8 5.6 5.7 5.6 5.6 5.6 5.8 5.5 5.3 5.8 5.7 5.6 5.6 5.6 5.7 5.4 5.4 5.4 5.5 5.7 5.8 5.8 5.6 5.3 5.1 5.0 5.1 5.2 5.3 5.4
5.2 5.5 5.6 5.7 5.5 5.5 5.6 5.8 5.9 6.2 6.3 6.2 6.2 6.1 6.0 5.7 5.7 5.7 5.8 5.8 5.8 5.3 6.0 5.6 5.4 5.3 5.4 5.6 5.6 5.5 5.6 5.7 5.7 5.6 5.4 5.4 5.3 5.2 5.3 5.3 5.3 5.4 5.5
5.8 5.8 5.8 5.8 5.7 5.7 5.8 6.1 6.1 6.0 5.9 6.0 6.1 6.2 6.0 5.8 5.6 5.6 5.5 5.5 5.5 5.3 5.4 5.6 5.5 5.3 5.3 5.3 5.3 5.5 5.5 5.4 5.4 5.5 5.5 5.4 5.3 5.3 5.3 5.4 5.5 5.5 5.7
6.2 6.2 6.4 6.0 5.7 5.5 5.5 5.7 5.7 5.6 5.6 5.8 5.9 5.8 5.6 5.6 5.6 5.6 5.5 5.5 5.3 5.3 5.2 5.1 5.0 5.0 5.2 5.4 5.5 5.4 5.4 5.5 5.4 5.4 5.4 5.3 5.2 5.3 5.3 5.4 5.6 5.7 6.0
5.5 5.5 5.5 5.6 5.5 5.5 5.4 5.4 5.3 5.5 5.5 5.5 5.5 5.5 5.5 5.5 5.3 5.3 5.3 5.3 5.3 5.2 5.1 5.2 5.2 5.4 5.3 5.2 5.2 5.2 5.2 5.2 5.2 5.2 5.4 5.5 5.5 5.5 5.5 5.5 5.6 5.9 6.3
5.0 5.0 5.0 5.0 5.2 5.1 5.0 4.9 4.9 4.8 4.9 5.1 5.2 5.4 5.6 5.6 5.6 5.6 5.3 5.4 5.3 5.3 5.3 5.3 5.3 5.4 5.4 5.3 5.2 5.2 5.2 5.3 5.2 5.2 5.3 5.3 5.3 5.4 5.4 5.4 5.7 6.0 6.3
5.3 5.1 4.9 5.1 5.1 5.1 5.1 5.1 5.0 5.1 5.2 5.1 5.3 5.2 5.2 5.4 5.5 5.4 5.4 5.5 5.5 5.4 5.4 5.4 5.3 5.2 5.1 5.2 5.0 5.1 5.0 5.3 5.4 5.6 5.6 5.6 5.5 5.4 5.6 5.9 6.2 6.4 6.4
6.4 6.2 6.1 5.8 5.7 6.1 6.1 6.0 6.1 6.2 6.1 6.1 6.1 6.1 6.0 5.9 5.9 6.0 6.0 5.8 5.6 5.5 5.5 5.5 5.3 5.3 5.5 5.6 6.1 5.8 5.8 5.9 5.8 5.7 5.7 5.8 5.7 5.8 5.8 6.1 6.4 6.4 6.3
5.2 5.9 6.3 6.3 6.3 6.4 6.3 6.3 6.4 6.3 6.4 6.3 6.2 6.3 6.4 6.4 6.4 6.3 6.2 6.2 6.4 6.5 6.4 6.3 6.2 6.1 6.3 6.2 6.1 6.0 6.0 6.0 6.0 5.8 6.0 6.1 6.0 6.0 6.0 6.0 5.9 6.1 6.2
4.3 4.7 4.3 4.1 5.0 5.6 5.7 5.9 6.3 6.5 6.6 6.6 6.6 6.5 6.4 6.3 6.4 6.5 6.5 6.5 6.4 6.3 6.3 6.3 6.3 6.3 6.2 6.3 6.2 6.1 6.0 6.0 6.0 6.0 6.1 6.0 5.9 5.9 6.0 5.9 5.8 5.9 6.2
3.4 3.2 2.9 3.0 3.5 3.7 4.1 4.5 5.1 5.5 6.0 6.1 6.2 6.3 6.6 6.7 6.8 6.8 6.7 6.7 6.6 6.6 6.6 6.6 6.6 6.5 6.5 6.4 6.4 6.4 6.4 6.2 6.1 6.0 6.1 6.0 5.8 5.9 5.9 5.9 6.0 6.1 6.3
4.4 4.3 4.0 3.8 3.3 3.0 3.2 3.2 3.3 3.7 4.4 5.2 5.9 6.2 6.4 6.5 6.6 6.8 7.0 7.0 6.8 6.6 6.6 6.6 6.5 6.4 6.5 6.4 6.4 6.4 6.2 6.2 6.1 6.2 6.0 5.9 5.9 5.8 5.6 5.7 5.8 6.1 6.2
Wind_Speed
11 8 9 11 12 11 5 9 8 4 13 12 12 12 12 11 11 11 19 18 22 23 18 10 11 11 9 9 9 6 7 3 2 3 3 4 4 5 4 5 7 7 8
16 12 11 12 14 11 9 15 13 6 4 5 10 12 11 10 9 9 13 22 22 20 16 12 10 12 8 10 9 8 5 4 3 2 2 2 3 4 4 4 4 5 7
13 12 12 12 12 9 9 9 15 9 3 11 8 9 9 8 9 10 11 13 18 20 14 16 10 11 8 8 8 7 6 4 3 3 1 1 0 1 4 3 3 4 3
14 12 12 12 13 7 7 8 9 5 4 12 10 17 12 13 11 11 10 11 16 13 16 14 13 11 7 8 6 6 5 3 5 3 2 2 4 2 3 3 3 2 2
12 13 11 10 8 5 7 11 11 12 1 14 16 15 14 11 10 10 14 13 13 15 16 15 12 10 7 7 8 6 6 4 2 2 3 3 1 4 4 5 4 2 1
11 10 10 6 5 5 10 10 11 9 4 12 13 19 18 15 11 11 12 11 10 10 12 13 9 9 8 8 7 7 6 4 2 1 1 2 2 1 1 1 3 6 4
6 9 10 9 8 9 14 10 11 11 6 4 9 14 15 14 16 14 11 12 10 10 12 13 11 9 9 8 7 6 6 5 4 3 2 1 0 2 1 1 3 2 1
5 3 2 5 11 17 17 13 13 19 14 7 3 6 10 7 11 11 9 9 8 9 11 11 11 11 10 9 8 6 5 5 4 4 3 2 2 2 2 2 3 3 2
4 3 4 7 10 16 20 19 17 19 17 13 8 3 5 8 7 12 11 9 10 9 11 11 10 10 9 9 9 6 6 5 4 4 4 3 2 2 2 2 1 1 2
7 5 6 8 7 13 14 15 15 17 15 12 10 10 12 7 5 8 8 12 11 13 13 10 10 9 8 8 7 5 6 7 5 5 5 4 3 3 0 0 1 1 1
5 4 6 7 9 11 14 12 13 16 13 11 9 6 6 8 9 7 5 12 14 13 12 11 9 9 8 7 6 6 7 8 7 5 7 6 4 3 2 2 2 2 2
9 6 9 11 10 11 13 10 12 13 12 11 10 9 8 9 8 8 8 2 11 10 8 9 9 9 8 8 8 9 9 11 10 7 5 5 3 4 2 1 0 2 2
12 11 11 10 10 11 8 8 9 9 8 8 7 6 8 6 7 9 7 6 9 8 9 9 9 9 8 8 8 8 7 8 9 8 6 5 5 4 3 2 2 0 0
15 13 12 10 10 8 7 8 9 8 8 8 8 8 7 7 7 8 8 8 7 8 9 8 8 8 8 7 8 8 7 8 7 6 6 5 5 5 4 2 1 2 2
16 14 13 10 10 9 8 7 8 8 8 8 8 7 7 8 7 8 9 8 7 6 7 8 7 7 7 6 9 9 8 8 8 6 6 5 7 9 6 1 2 2 1
13 11 11 11 11 10 8 7 7 6 7 8 8 7 7 6 8 8 10 9 8 7 6 6 6 7 3 9 11 10 8 9 9 8 6 6 7 6 7 5 7 6 3
12 11 11 8 8 8 7 6 6 5 7 7 7 7 7 6 5 6 7 8 9 9 7 7 7 7 6 9 11 10 6 6 6 7 6 6 4 5 6 5 5 4 2
14 12 10 8 8 8 7 6 5 6 5 5 5 6 6 6 5 6 6 7 5 6 6 7 7 7 6 10 11 11 8 6 7 7 7 7 6 5 4 4 4 3 4
11 10 9 9 9 8 6 5 6 6 5 5 4 4 4 5 4 5 5 4 5 5 4 4 7 8 8 11 11 8 7 6 5 5 4 4 5 8 6 4 4 4 3
10 10 9 9 9 9 7 6 6 7 6 5 4 4 3 4 4 5 5 3 4 4 4 4 4 7 8 11 10 4 5 5 4 4 5 3 2 11 10 4 3 2 0
10 8 8 8 8 7 6 6 7 7 5 5 3 2 3 2 4 5 4 4 4 4 4 5 4 5 8 7 11 5 4 5 5 5 4 4 8 8 8 6 3 3 4
8 8 7 7 7 8 6 5 5 3 3 2 3 2 2 2 2 5 5 5 5 5 6 6 4 3 4 4 10 10 5 2 3 3 3 4 11 8 7 6 6 6 5
4 6 7 6 6 7 7 4 5 2 1 2 1 1 3 3 3 5 5 4 5 5 5 4 4 4 3 4 7 12 11 7 2 2 5 8 10 9 6 6 5 7 3
3 1 1 4 6 7 6 6 5 5 4 3 4 4 4 4 4 2 3 5 5 5 4 5 4 4 5 5 6 6 7 10 8 5 5 6 6 6 4 3 4 3 3
2 2 3 2 2 2 3 4 5 5 4 4 3 4 4 6 5 5 5 5 4 4 5 5 6 6 6 6 8 8 7 7 8 5 3 3 2 2 3 3 3 4 3
4 4 3 2 1 1 2 5 7 8 8 6 5 3 3 4 4 5 5 6 3 1 4 4 3 4 2 8 10 9 8 7 11 4 3 4 5 5 5 4 4 3 5
Wind_Direction
263 228 233 209 210 229 209 209 195 295 316 194 165 160 163 170 169 168 158 177 175 172 174 175 173 165 166 176 180 172 184 184 134 177 196 239 228 230 234 225 256 228 230
243 233 221 231 225 219 219 180 162 170 338 265 173 172 159 163 161 160 162 183 168 178 173 163 166 176 172 183 181 175 176 171 177 190 10 251 175 222 215 224 232 248 256
246 235 223 224 235 208 212 174 168 153 350 272 171 149 141 144 158 170 170 179 167 168 183 154 170 177 173 177 179 169 179 170 156 246 305 181 25 341 138 181 214 233 229
236 239 234 215 236 192 179 174 157 143 288 334 189 159 156 169 174 171 171 166 164 167 167 168 174 170 174 162 169 176 183 182 166 156 238 316 351 338 315 138 199 178 326
230 230 214 222 206 164 169 149 121 114 30 289 286 163 157 164 169 164 165 167 164 168 174 172 173 169 161 162 165 169 183 185 158 176 140 210 307 258 237 277 306 325 71
199 201 224 197 194 204 155 140 130 105 42 323 182 164 164 159 165 162 169 168 165 168 170 170 164 157 158 168 168 164 163 147 141 87 243 218 245 248 218 256 278 289 301
183 213 207 212 206 194 148 152 157 114 118 56 304 167 167 158 163 168 167 166 168 166 169 167 167 163 161 156 150 160 146 141 158 185 231 274 224 209 171 227 277 266 285
204 230 257 228 218 160 151 160 158 151 146 142 86 292 147 164 168 169 162 167 167 167 159 167 158 158 152 152 137 138 138 147 155 186 142 151 172 206 180 203 265 253 239
64 1 300 246 149 143 152 166 165 129 145 162 168 150 77 126 154 173 164 164 154 154 158 148 147 148 146 137 145 151 156 165 143 130 132 139 167 292 317 31 351 291 286
66 9 271 121 132 137 148 157 153 146 154 167 171 150 167 120 124 109 155 162 154 147 143 140 132 129 126 140 141 153 151 146 146 148 149 126 104 88 10 182 233 167 263
24 358 32 94 95 113 116 128 140 138 144 148 149 151 148 136 137 141 136 172 146 150 150 144 144 143 143 134 138 142 150 145 143 116 137 131 147 155 209 215 215 214 192
31 4 67 71 75 95 102 125 119 123 128 134 151 160 147 139 142 151 133 145 130 141 146 151 133 142 146 160 169 165 170 155 138 138 148 139 121 184 182 178 183 352 315
28 22 73 70 63 59 77 90 85 85 99 100 95 96 93 87 137 134 125 132 123 137 147 152 157 152 149 164 137 149 172 145 132 140 139 150 180 172 172 153 97 58 321
45 42 50 57 60 61 68 96 107 117 127 112 114 102 116 143 147 144 135 121 124 132 148 153 144 133 143 137 144 148 144 123 121 128 148 164 175 153 150 139 117 11 308
36 29 39 40 29 48 48 59 91 98 111 112 106 113 123 122 119 126 122 116 105 120 121 116 113 128 145 145 143 139 139 139 137 128 127 118 85 68 64 67 169 214 270
50 55 33 27 39 33 36 44 50 80 99 100 101 102 110 123 129 127 126 113 116 113 119 119 134 126 106 136 138 142 146 140 140 145 137 127 128 128 116 94 61 47 341
59 59 58 42 43 39 37 43 45 33 83 97 103 110 117 113 103 105 112 121 131 140 141 135 136 128 116 130 132 126 125 128 140 144 147 141 142 146 145 136 124 114 98
48 46 54 61 54 50 55 50 60 73 79 89 97 106 113 103 94 107 108 107 119 128 136 140 129 123 122 130 124 128 132 143 151 154 161 152 154 162 155 160 157 182 196
39 44 41 46 39 46 54 70 71 74 73 83 96 94 102 116 122 107 109 110 115 112 112 123 134 128 143 152 151 149 141 146 137 130 135 148 153 151 168 165 183 206 185
42 32 29 41 43 28 25 46 54 48 48 42 55 73 88 116 115 119 113 108 119 119 125 122 139 146 144 163 167 166 128 133 137 144 154 198 197 156 179 204 180 193 119
26 24 41 41 29 23 35 55 56 48 34 28 28 47 76 91 115 124 135 142 127 128 136 137 145 159 142 164 167 191 161 165 166 166 174 170 188 176 181 201 193 161 125
20 21 33 32 24 11 17 55 64 35 44 84 121 141 135 98 133 145 146 158 161 161 166 170 163 171 167 154 189 170 225 113 138 176 156 152 174 187 194 201 226 179 188
28 6 5 21 33 27 7 29 15 9 210 186 186 187 146 165 186 182 176 173 183 183 181 175 182 180 181 191 196 195 203 194 210 153 135 146 173 182 196 214 209 202 207
95 20 7 15 6 1 12 18 359 358 326 268 222 211 213 193 185 215 193 200 196 193 181 178 209 197 188 196 180 193 198 208 201 181 163 180 176 179 183 164 211 200 188
86 83 74 63 86 351 349 344 330 326 298 277 256 234 225 202 201 212 215 218 213 204 205 198 198 204 201 202 188 180 182 187 195 154 131 136 143 193 200 183 197 200 197
349 3 2 359 28 318 337 355 353 343 328 322 322 299 260 242 217 206 208 219 241 272 255 279 226 190 152 161 178 178 172 160 153 142 161 184 194 206 210 201 205 188 217